Location: Gu�tanj
(46.5431°N, 14.9692°E)
Time: 20:33:22
(UTC+00:00)

Cosmos 1339 Rocket - Pass Details

Date: 03 March 2021
Orbit: 943 x 1005 km, 82.9° (Epoch: 20 April)

Event Time Altitude Azimuth Distance (km) Brightness Sun altitude
Rises 18:18:08 0° 353° (N) 3,651 7.7 -16.1°
Reaches altitude 10° 18:20:39 10° 356° (N) 2,709 7.0 -16.5°
Maximum altitude 18:26:50 66° 79° (ENE) 1,059 4.4 -17.6°
Drops below altitude 10° 18:33:04 10° 161° (SSE) 2,734 6.6 -18.6°
Sets 18:35:37 0° 164° (SSE) 3,687 7.3 -19.0°
